Flag for United Arab Emirates Weather past 2 weeks in Dubai, Dubai, United Arab Emirates

Now
90 °F

Passing clouds.


Feels Like: 87 °F
Forecast: 76 / 93 °F
Wind: 14 mph from West

Location: Dubai International Airport


UV Index: 7 (High)

Visibility: N/A


Pressure: 29.77 "Hg

Humidity: 27%

Dew point: 52 °F

Location of DubaiLocation

Historic Weather in Dubai

°F

Dubai temperature yesterday

Maximum temperature yesterday: 100 °F (at 11:00 AM)
Minimum temperature yesterday: 79 °F (at 5:00 AM)
Average temperature yesterday: 88 °F

Past Weeks' High & Low Weather Summary

 TemperatureHumidityPressure
High100 °F (Apr 15, 11:00 AM)100% (Apr 7, 6:00 AM)30.07 "Hg (Apr 7, 6:00 AM)
Low66 °F (Apr 7, 6:00 AM)6% (Apr 11, 12:00 PM)29.68 "Hg (Apr 17, 5:00 PM)
Average84 °F44%29.87 "Hg
* Reported Apr 5 11:00 AM — Apr 20 11:00 AM, Dubai, Weather by CustomWeather, © 2014

Note: Actual official high and low records may vary slightly from our data, if they occured in-between our weather recording intervals... More about our weather records

Advertising

Historic Weather Conditions — Data for Previous 24 hours

 ConditionsComfort  
Time TempWeatherWind HumidityBarometerVisibility
11:00 AM
Apr 20
90 °FPassing clouds.14 mph27%29.77 "HgN/A
10:00 AM90 °FClear.13 mph27%29.77 "Hg5 mi
9:00 AM86 °FClear.10 mph38%29.77 "Hg5 mi
8:00 AM81 °FClear.10 mph54%29.77 "Hg5 mi
7:00 AM77 °FClear.7 mph61%29.77 "Hg5 mi
6:00 AM77 °FSunny.9 mph61%29.74 "Hg10 mi
5:00 AM77 °FClear.9 mph61%29.74 "Hg10 mi
4:00 AM79 °FPassing clouds.7 mph58%29.74 "HgN/A
3:00 AM79 °FPassing clouds.6 mph54%29.74 "HgN/A
2:00 AM81 °FClear.7 mph51%29.77 "Hg10 mi
1:00 AM81 °FClear.8 mph51%29.80 "Hg10 mi
12:00 AM82 °FClear.7 mph51%29.80 "Hg10 mi
11:00 PM
Apr 19
84 °FPassing clouds.6 mph51%29.80 "HgN/A
10:00 PM86 °FPassing clouds.6 mph49%29.83 "HgN/A
9:00 PM86 °FPassing clouds.3 mph46%29.83 "HgN/A
8:00 PM86 °FClear.9 mph46%29.80 "Hg10 mi
7:00 PM88 °FPassing clouds.12 mph46%29.80 "HgN/A
6:00 PM88 °FSunny.10 mph49%29.80 "Hg10 mi
5:00 PM90 °FPassing clouds.14 mph43%29.80 "HgN/A
4:00 PM93 °FPassing clouds.10 mph41%29.80 "HgN/A
3:00 PM93 °FSunny.15 mph41%29.80 "Hg10 mi
2:00 PM93 °FSunny.20 mph32%29.80 "Hg10 mi
1:00 PM95 °FPassing clouds.15 mph20%29.83 "HgN/A
12:00 PM93 °FSunny.16 mph32%29.86 "Hg10 mi
11:00 AM100 °FSunny.6 mph11%29.83 "Hg10 mi
Weather by CustomWeather, © 2014

See weather overview